AO-07 1 07530U 74089B 22013.92444431 -.00000031 00000-0 91986-4 0 9994 2 07530 101.8852 353.4281 0012246 339.4339 77.6345 12.53652336158100 UO-11 1 14781U 84021B 22013.92734268 .00000268 00000-0 38759-4 0 9997 2 14781 97.6052 8.5494 0009888 106.7323 253.4978 14.83408648 17133 LO-19 1 20442U 90005G 22013.79527959 .00000016 00000-0 22652-4 0 9995 2 20442 98.7723 336.4883 0010667 262.7942 97.2029 14.33015848670950 HUBBLE 1 20580U 90037B 22013.66468385 .00001032 00000-0 51094-4 0 9997 2 20580 28.4701 113.9109 0002679 161.8858 309.7220 15.09936771542792 MET-2/21 1 22782U 93055A 22013.78049932 .00000007 00000-0 -75264-5 0 9990 2 22782 82.5502 137.0046 0023348 63.4413 44.7329 13.83843969432616 AO-27 1 22825U 93061C 22013.89843712 .00000019 00000-0 25091-4 0 9999 2 22825 98.9040 41.5318 0009161 137.2121 222.9775 14.30139245476066 IO-26 1 22826U 93061D 22013.60898552 .00000027 00000-0 28319-4 0 9996 2 22826 98.8984 41.1262 0009833 126.3128 233.8963 14.30480950476274 FO-29 1 24278U 96046B 22013.66994005 -.00000021 00000-0 17476-4 0 9998 2 24278 98.5386 58.4998 0349665 324.9764 32.8822 13.53108963254673 NOAA-15 1 25338U 98030A 22013.92577031 .00000056 00000-0 41618-4 0 9998 2 25338 98.6623 45.3451 0010861 33.0991 327.0867 14.26082030230992 GO-32 1 25397U 98043D 22013.81912104 -.00000005 00000-0 17641-4 0 9993 2 25397 98.7987 324.0521 0001408 148.8118 211.3144 14.23727852221425 ISS 1 25544U 98067A 22014.08607557 .00005702 00000-0 10973-3 0 9994 2 25544 51.6450 19.7112 0006684 19.1620 88.5474 15.49483897321287 NO-44 1 26931U 01043C 22013.74618526 -.00000017 00000-0 25067-4 0 9999 2 26931 67.0518 97.7046 0006758 280.5454 79.4886 14.30654275 59279 SO-50 1 27607U 02058C 22013.56992475 .00000215 00000-0 50846-4 0 9997 2 27607 64.5554 55.7537 0066221 325.8025 33.8820 14.75870569 25516 CO-55 1 27844U 03031E 22013.74204536 .00000112 00000-0 69856-4 0 9993 2 27844 98.6801 23.7607 0009768 184.1488 175.9610 14.22368574961870 CO-57 1 27848U 03031J 22013.93899949 .00000085 00000-0 58235-4 0 9994 2 27848 98.6852 24.5003 0009401 197.5201 162.5654 14.21937417961725 RS-22 1 27939U 03042A 22013.79560807 .00000291 00000-0 60569-4 0 9991 2 27939 98.1668 154.8145 0012189 341.9656 18.1119 14.67101942978362 NOAA-18 1 28654U 05018A 22013.87772312 .00000089 00000-0 71973-4 0 9992 2 28654 98.9699 84.3148 0014856 51.3133 308.9365 14.12676473858157 CO-58 1 28895U 05043F 22013.59596191 .00000320 00000-0 69931-4 0 9994 2 28895 98.0839 147.6213 0015450 268.3249 91.6184 14.64051063864753 Falconsat-3 1 30776U 07006E 22013.88536573 .00010792 00000-0 22909-3 0 9993 2 30776 35.4316 184.9120 0002698 18.4532 341.6294 15.44253592825611 CO-65 1 32785U 08021C 22013.82844523 .00000739 00000-0 84126-4 0 9994 2 32785 97.6376 349.8401 0013686 32.1034 328.1015 14.88984229743471 AAUSAT2 1 32788U 08021F 22013.93974224 .00001230 00000-0 11410-3 0 9993 2 32788 97.5210 5.0167 0009961 286.4350 73.5776 14.96150953745325 DO-64 1 32789U 08021G 22013.60838975 .00003850 00000-0 23793-3 0 9997 2 32789 97.3576 45.7945 0012636 133.3493 226.8792 15.10364450748538 CO-66 1 32791U 08021J 22013.67436096 .00001139 00000-0 11824-3 0 9995 2 32791 97.5943 355.3697 0012861 353.3086 6.7960 14.91784612744113 RS-30 1 32953U 08025A 22013.77133896 .00000021 00000-0 80971-4 0 9991 2 32953 82.5047 280.1210 0018441 238.4484 121.4797 12.43106815619115 PRISM 1 33493U 09002B 22013.88052021 .00002493 00000-0 21464-3 0 9995 2 33493 98.2156 351.9648 0013032 315.2688 44.7481 14.98318230705822 NOAA-19 1 33591U 09005A 22013.93260389 .00000074 00000-0 65456-4 0 9994 2 33591 99.1670 44.6804 0013014 261.4100 98.5596 14.12521795666371 SRMSAT 1 37841U 11058D 22013.56603863 .00000341 00000-0 42568-4 0 9990 2 37841 19.9718 111.1224 0012014 81.9495 309.0132 14.10720957529567 HRBE 1 37855U 11061F 22013.70225993 .00003654 00000-0 17586-3 0 9990 2 37855 101.7204 51.5902 0162374 164.7485 195.8708 15.09211910557874 RS-40 1 38735U 12041C 22013.90362626 -.00000009 00000-0 -13614-3 0 9995 2 38735 82.4779 1.8655 0017374 352.3525 7.7287 12.42583554429327 ZACUBE-1 1 39417U 13066B 22013.88917868 .00000519 00000-0 70410-4 0 9994 2 39417 97.6174 352.6178 0058033 189.9041 170.1034 14.81770064440230 Delfi-N3xt 1 39428U 13066N 22013.80977769 .00001132 00000-0 18353-3 0 9993 2 39428 97.8027 315.0359 0120326 52.3921 308.8136 14.68355586435836 GOMX-1 1 39430U 13066Q 22013.90750135 .00000319 00000-0 65999-4 0 9998 2 39430 97.8159 289.9098 0150113 171.4207 188.9622 14.59806241433745 LO-74 1 39440U 13066AA 22013.89747730 .00000621 00000-0 92146-4 0 9994 2 39440 97.7059 338.2114 0078032 273.0100 86.2183 14.76488453437477 AO-73 1 39444U 13066AE 22013.87653832 .00000624 00000-0 81487-4 0 9994 2 39444 97.6064 354.9973 0057292 179.0571 181.0761 14.82727091438610 SPROUT 1 39770U 14029E 22013.78407364 .00001767 00000-0 19304-3 0 9990 2 39770 97.9311 130.1647 0007799 230.0413 130.0117 14.89154979414633 DTUSAT-2 1 40030U 14033W 22013.74302736 .00000777 00000-0 87986-4 0 9991 2 40030 97.9290 306.0729 0011152 196.6733 163.4119 14.89284181410610 EO-80 1 40032U 14033Y 22013.77900281 .00000739 00000-0 83985-4 0 9998 2 40032 97.9296 306.1192 0011118 197.5903 162.4930 14.89247814410593 HODOYOSHI-1 1 40299U 14070B 22013.80517171 .00001733 00000-0 71283-4 0 9993 2 40299 97.2651 86.5054 0011805 332.3393 166.8062 15.25416260399478 FIREBIRD FU3 1 40377U 15003B 22013.79293002 .00009145 00000-0 31130-3 0 9990 2 40377 99.1124 204.7793 0111130 186.6595 173.3168 15.24935985384812 FIREBIRD FU4 1 40378U 15003C 22013.82686964 .00008681 00000-0 29510-3 0 9991 2 40378 99.1129 204.9992 0111140 186.2760 173.7088 15.25001347384825 GRIFEX 1 40379U 15003D 22013.75988581 .00006789 00000-0 26280-3 0 9992 2 40379 99.1145 192.3503 0123040 224.2553 134.8788 15.19825516384108 XW-2A 1 40903U 15049E 22013.81254127 .00007391 00000-0 14400-3 0 9995 2 40903 97.2087 72.5933 0010499 334.9010 136.6831 15.47783394355308 XW-2C 1 40906U 15049H 22013.83912867 .00001782 00000-0 92240-4 0 9999 2 40906 97.4918 18.7134 0014340 169.8286 274.1514 15.17450640349468 XW-2D 1 40907U 15049J 22013.78243002 .00002183 00000-0 11092-3 0 9993 2 40907 97.4910 18.5363 0013823 165.8357 272.8018 15.17868099349491 LILACSAT-2 1 40908U 15049K 22013.83281764 .00000833 00000-0 48259-4 0 9993 2 40908 97.5127 16.1085 0015029 185.8695 258.7232 15.14854413349072 XW-2E 1 40909U 15049L 22013.83295813 .00003149 00000-0 14602-3 0 9991 2 40909 97.4672 22.8594 0013363 148.4320 289.7579 15.20725230349894 XW-2F 1 40910U 15049M 22013.84112497 .00003132 00000-0 14734-3 0 9998 2 40910 97.4748 21.9699 0014643 149.7932 295.1693 15.20218554349671 XW-2B 1 40911U 15049N 22013.79711824 .00002245 00000-0 11427-3 0 9992 2 40911 97.4903 19.1969 0013687 166.8914 270.8188 15.17776561349381 DCBB 1 40912U 15049P 22013.80625262 .00003710 00000-0 16075-3 0 9997 2 40912 97.4425 26.3093 0015269 120.7376 318.2355 15.22914762350195 TW-1A 1 40928U 15051D 22013.81672119 .00012529 00000-0 22656-3 0 9991 2 40928 97.0613 38.9292 0006769 232.9735 212.8653 15.49793928354223 IO-86 1 40931U 15052B 22013.32043605 .00000872 00000-0 32291-4 0 9999 2 40931 5.9976 195.6862 0012602 132.0417 228.0758 14.76720349340373 ATHENOXAT-1 1 41168U 15077C 22013.76093138 .00005247 00000-0 22090-3 0 9999 2 41168 14.9923 153.3462 0009629 225.2865 172.3432 15.17210001336754 ChubuSat-2 1 41338U 16012B 22013.45973677 .00000852 00000-0 58813-4 0 9999 2 41338 31.0030 290.2883 0013373 55.2697 304.9196 15.00786388324176 ChubuSat-3 1 41339U 16012C 22013.46333867 .00000708 00000-0 47590-4 0 9992 2 41339 31.0116 287.2949 0013299 62.8137 297.3880 15.00911727324173 Horyu-4 1 41340U 16012D 22013.41046275 .00001319 00000-0 90871-4 0 9992 2 41340 31.0041 268.4502 0013387 99.0544 261.1607 15.02319932324381 e-st@r-II 1 41459U 16025D 22013.84635863 .00003551 00000-0 16812-3 0 9993 2 41459 98.1662 168.2139 0156273 72.9570 288.8707 15.09866924314144 AAUSAT4 1 41460U 16025E 22013.92805363 .00005429 00000-0 23874-3 0 9990 2 41460 98.1621 173.3362 0140869 52.8939 308.5073 15.13785799314529 LO-87 1 41557U 16033B 22013.85420456 .00004733 00000-0 16022-3 0 9998 2 41557 97.3908 111.7968 0011458 201.7847 301.6720 15.31029101313707 NuSat2 1 41558U 16033C 22013.82826337 .00004642 00000-0 14718-3 0 9993 2 41558 97.4059 116.6280 0010681 192.0014 321.1555 15.33161227313938 Lapan A3 1 41603U 16040E 22013.84530523 .00000474 00000-0 24859-4 0 9990 2 41603 97.2299 57.4563 0013053 352.3889 121.8328 15.20236824308542 Pratham 1 41783U 16059A 22013.68181624 .00000150 00000-0 37970-4 0 9994 2 41783 97.9372 61.2605 0032325 303.9626 55.8506 14.63215006282993 TY-1 1 41844U 16066D 22013.80387230 .00004355 00000-0 16742-3 0 9999 2 41844 97.3963 26.9154 0015886 112.0258 62.0709 15.26829532287985 CAS-2T 1 41847U 16066G 22013.78181681 .00000218 00000-0 43885-4 0 9994 2 41847 98.5744 78.4814 0363895 312.4316 44.6615 14.38321995272113 EO-88 1 42017U 17008BX 22013.90376816 .00005290 00000-0 18421-3 0 9993 2 42017 97.2927 82.6610 0007227 83.1742 277.0321 15.30076123273415 CAS-4B 1 42759U 17034B 22013.72855190 .00001372 00000-0 94511-4 0 9994 2 42759 43.0164 104.6884 0007645 29.5483 105.2628 15.10713434252946 CAS-4A 1 42761U 17034D 22013.70655596 .00001435 00000-0 98047-4 0 9991 2 42761 43.0167 103.7108 0008042 31.1637 99.2087 15.10801179252948 NIUSat 1 42766U 17036B 22013.73226626 .00003123 00000-0 13209-3 0 9991 2 42766 97.2250 57.1990 0015496 148.4982 211.7187 15.23821732253229 Aalto 1 1 42775U 17036L 22013.78973520 .00002694 00000-0 11526-3 0 9990 2 42775 97.2212 57.3669 0014100 146.9584 213.2538 15.23564515253213 URSA MAIOR 1 42776U 17036M 22013.75011956 .00002841 00000-0 12011-3 0 9998 2 42776 97.2226 57.9280 0013862 146.1702 214.0423 15.23929669253231 Max Valier Sat 1 42778U 17036P 22013.66776176 .00002807 00000-0 11629-3 0 9998 2 42778 97.2296 60.1727 0012444 147.3575 212.8434 15.24647938253301 Pegasus 1 42784U 17036V 22013.67331905 .00003976 00000-0 15833-3 0 9992 2 42784 97.2243 60.7987 0011877 148.8131 211.3815 15.25736927253391 NUDATSat 1 42787U 17036Y 22013.95772738 .00005534 00000-0 20202-3 0 9997 2 42787 97.2277 64.2812 0011164 137.4095 222.8015 15.28465014253465 SUCHAI 1 1 42788U 17036Z 22013.80855103 .00004576 00000-0 17597-3 0 9998 2 42788 97.2250 62.2286 0011468 144.4400 215.7605 15.26829698253562 SKCUBE 1 42789U 17036AA 22013.68470437 .00004342 00000-0 16911-3 0 9998 2 42789 97.2246 61.7065 0011389 145.5503 214.6477 15.26435507253449 VZLUSAT 1 1 42790U 17036AB 22013.76071080 .00006202 00000-0 22650-3 0 9994 2 42790 97.2280 64.0722 0010690 139.1857 221.0185 15.28411470253588 VENTA 1 1 42791U 17036AC 22013.74593446 .00003898 00000-0 15302-3 0 9992 2 42791 97.2244 61.7392 0011022 145.7057 214.4896 15.26237466253440 Robusta 1B 1 42792U 17036AD 22013.68182407 .00004681 00000-0 18039-3 0 9998 2 42792 97.2248 62.1742 0010986 145.3217 214.8741 15.26750137253483 D-SAT 1 42794U 17036AF 22013.91877553 .00001071 00000-0 96833-4 0 9998 2 42794 97.4538 27.5582 0123362 242.0350 116.8340 14.91912795248438 TechnoSat 1 42829U 17042E 22013.92962084 .00000307 00000-0 35810-4 0 9998 2 42829 97.4392 236.9238 0014566 158.2008 201.9834 14.91470351245058 QIKCOM-1 1 42983U 98067NF 22013.87894724 .00021615 00000-0 15438-3 0 9992 2 42983 51.6333 265.8044 0003350 87.6970 272.4413 15.73708001240456 AO-91 1 43017U 17073E 22013.69281840 .00002488 00000-0 19482-3 0 9998 2 43017 97.6919 274.1869 0252358 334.3670 24.5205 14.80164841224212 PICSAT 1 43132U 18004X 22013.74054857 .00004961 00000-0 18719-3 0 9993 2 43132 97.3906 91.3491 0008606 176.3218 183.8086 15.27466414222767 AO-92 1 43137U 18004AC 22013.85235527 .00003475 00000-0 13579-3 0 9993 2 43137 97.3877 90.6384 0008319 178.3707 181.7560 15.26510076222743 TianYi 2 1 43155U 18008A 22013.86530586 .00001968 00000-0 11385-3 0 9999 2 43155 97.3769 77.2907 0015938 326.4595 121.7529 15.13305507219888 Zhou Enlai 1 43156U 18008B 22013.85714008 .00002416 00000-0 14036-3 0 9997 2 43156 97.3818 77.1304 0013185 327.5951 152.9690 15.12966041219817 TianYi 6 1 43158U 18008D 22013.75349101 .00002039 00000-0 12137-3 0 9997 2 43158 97.3759 75.2855 0012547 327.8496 150.5927 15.12263751219715 S-Net D 1 43186U 18014G 22013.75037767 .00001143 00000-0 10336-3 0 9991 2 43186 97.6685 282.4217 0012582 96.7085 263.5569 14.97321546215763 S-Net B 1 43187U 18014H 22013.68355653 .00001143 00000-0 10341-3 0 9997 2 43187 97.6682 282.3146 0012576 96.8383 263.4270 14.97320687215758 S-Net A 1 43188U 18014J 22013.68375941 .00001145 00000-0 10353-3 0 9995 2 43188 97.6686 282.3695 0012579 96.9140 263.3513 14.97319765215751 S-Net C 1 43189U 18014K 22013.68429914 .00001166 00000-0 10531-3 0 9997 2 43189 97.6682 282.3058 0012587 96.7650 263.5004 14.97319189214301 FMN 1 1 43192U 18015A 22013.85335920 .00009349 00000-0 31488-3 0 9999 2 43192 97.5124 156.0105 0012567 215.0642 248.5422 15.30908350219742 Shaonian Xing 1 43199U 18015H 22013.86569558 .00005993 00000-0 21180-3 0 9992 2 43199 97.4907 152.2892 0013868 226.0090 237.8008 15.29492000219785 SurfSat 1 43614U 18070B 22013.59215444 .00010569 00000-0 22012-3 0 9997 2 43614 93.0208 33.6515 0009777 265.1417 94.8724 15.45539090187080 CP-7 DAVE 1 43615U 18070C 22013.78700222 .00010235 00000-0 21636-3 0 9993 2 43615 93.0210 33.6535 0010006 264.8463 95.1653 15.45102193187096 ELFIN-B 1 43616U 18070D 22013.61101480 .00016067 00000-0 28405-3 0 9997 2 43616 93.0157 34.1379 0008843 256.0381 103.9896 15.50251502187268 ELFIN-A 1 43617U 18070E 22013.61420784 .00016506 00000-0 28346-3 0 9991 2 43617 93.0209 35.2175 0008143 250.7852 109.2528 15.51078272187296 CubeBel-1 1 43666U 18083E 22013.80524166 .00003430 00000-0 15975-3 0 9995 2 43666 97.4386 44.4366 0014888 148.3099 329.6513 15.20491856177964 Changshagaoxin 1 43669U 18083H 22013.83512016 .00002794 00000-0 13590-3 0 9995 2 43669 97.4309 40.9071 0011076 143.2983 324.4258 15.19184949177811 Ten-Koh 1 43677U 18084G 22013.90999569 .00000468 00000-0 53552-4 0 9994 2 43677 97.9427 142.8419 0017133 63.5008 296.7964 14.90660616174658 PO-101 1 43678U 18084H 22013.86508589 .00000651 00000-0 70147-4 0 9991 2 43678 97.9476 145.5951 0011423 77.7140 282.5363 14.91881681174805 IRVINE 01 1 43693U 18088D 22013.59773601 .00009465 00000-0 33594-3 0 9997 2 43693 85.0321 54.9755 0013599 336.0544 24.0067 15.28806044176509 QO-100 1 43700U 18090A 22013.50396931 .00000158 00000-0 00000-0 0 9990 2 43700 0.0225 37.4138 0002383 289.0984 353.6876 1.00273169 11477 Reaktor Hello World 1 43743U 18096AA 22013.79203161 .00004650 00000-0 16057-3 0 9999 2 43743 97.3693 94.6746 0014997 248.3395 111.6249 15.30344653174280 MinXSS-2 1 43758U 18099A 22013.76248042 .00000710 00000-0 67467-4 0 9997 2 43758 97.6456 85.3733 0016778 66.6213 293.6771 14.96458945169969 AO-95 1 43770U 18099N 22013.88280713 .00000979 00000-0 92942-4 0 9998 2 43770 97.6428 84.1828 0015933 75.6678 284.6311 14.95667246169900 RANGE-B 1 43772U 18099Q 22013.72902398 .00001376 00000-0 12731-3 0 9992 2 43772 97.6522 85.3834 0015112 64.5611 295.7172 14.96070957169894 RANGE-A 1 43773U 18099R 22013.70804286 .00000379 00000-0 39312-4 0 9995 2 43773 97.6352 83.1066 0014667 64.6442 295.6296 14.95466159169861 MOVE-II 1 43780U 18099Y 22013.74718420 .00001974 00000-0 17854-3 0 9999 2 43780 97.6457 84.8667 0014795 73.0117 287.2725 14.96480212169912 SNUSat 2 1 43782U 18099AA 22013.88304488 .00000991 00000-0 93533-4 0 9998 2 43782 97.6430 84.5970 0014036 63.2198 297.0457 14.95884294169926 SnugLite 1 43784U 18099AC 22013.73844256 .00001391 00000-0 12870-3 0 9995 2 43784 97.6392 84.1291 0016374 70.2786 290.0200 14.96033828169924 ITASat 1 1 43786U 18099AE 22013.76336959 .00000390 00000-0 39813-4 0 9991 2 43786 97.6451 84.8896 0016453 69.0711 291.2270 14.95915757169921 EAGLET 1 1 43790U 18099AJ 22013.81776002 .00000944 00000-0 88605-4 0 9997 2 43790 97.6444 85.4346 0014925 72.8289 287.4565 14.96223239169662 ESEO 1 43792U 18099AL 22013.77431836 -.00000072 00000-0 -13398-5 0 9999 2 43792 97.6399 84.7980 0014561 69.9699 290.3088 14.95884522169702 CSIM 1 43793U 18099AM 22013.78934537 .00001448 00000-0 13017-3 0 9999 2 43793 97.6446 85.6356 0013700 66.3330 293.9329 14.97140706169731 Astrocast 0.1 1 43798U 18099AS 22013.73020360 .00001612 00000-0 14640-3 0 9995 2 43798 97.6447 85.6499 0013204 54.4472 305.7979 14.96580334169961 JO-97 1 43803U 18099AX 22013.88900972 .00000811 00000-0 76717-4 0 9998 2 43803 97.6414 84.7492 0016443 68.4445 291.8527 14.96236221169954 Suomi 100 1 43804U 18099AY 22013.76589476 .00000432 00000-0 43338-4 0 9990 2 43804 97.6408 84.5753 0016396 68.6795 291.6175 14.96186604169948 Al Farabi 2 1 43805U 18099AZ 22013.79730326 .00001176 00000-0 10832-3 0 9994 2 43805 97.6418 84.9516 0016212 69.0200 291.2757 14.96502985169962 CHOMPTT 1 43855U 18104G 22013.44324257 .00003584 00000-0 14102-3 0 9999 2 43855 85.0373 154.2617 0018582 91.0713 269.2660 15.25091526171088 ISAT 1 43879U 18111D 22013.77416962 .00001495 00000-0 13456-3 0 9994 2 43879 97.6759 282.1997 0014405 113.3691 246.9048 14.97054685164511 UWE-4 1 43880U 18111E 22013.73025121 .00000773 00000-0 71660-4 0 9995 2 43880 97.6778 282.7602 0013116 116.5136 243.7432 14.97257866166543 Sparrow 1 43881U 18111F 22013.69196331 .00001741 00000-0 15469-3 0 9993 2 43881 97.6797 282.9003 0013935 113.5791 246.6896 14.97340608166548 Lume 1 1 43908U 18111AJ 22013.64859153 .00003736 00000-0 14089-3 0 9999 2 43908 97.2119 266.4664 0017847 265.6200 94.3001 15.27513608169749 FO-98 1 43933U 19003B 22013.70286248 .00040398 00000-0 10962-2 0 9994 2 43933 97.1608 53.1536 0012337 10.1426 350.0066 15.37421391166276 FO-99 1 43937U 19003F 22013.82663258 .00004281 00000-0 16207-3 0 9991 2 43937 97.1523 53.4343 0021888 350.2700 9.8113 15.27223549166354 MYSat 1 1 44045U 18092F 22013.57735986 .00012675 00000-0 28307-3 0 9999 2 44045 51.6358 118.3257 0009161 252.3018 107.6969 15.43863196163871 AstroCast 0.2 1 44083U 19018F 22013.79873297 .00004775 00000-0 19994-3 0 9996 2 44083 97.3474 75.7660 0011115 319.3276 40.7130 15.23966329154917 AISTechSat 3 1 44103U 19018AB 22013.77466324 .00002987 00000-0 12194-3 0 9994 2 44103 97.3337 76.1847 0011709 329.4795 125.9818 15.25120784155051 AISat 1 1 44104U 19018AC 22013.78513219 .00002734 00000-0 84147-4 0 9990 2 44104 97.4095 96.5422 0054236 327.5459 32.2451 15.33130237155884 Prox-1 1 44339U 19036A 22013.61739337 .00001610 00000-0 32471-3 0 9997 2 44339 24.0007 90.1183 0010987 324.3789 35.5969 14.54074978135781 Oculus-ASR 1 44348U 19036K 22013.67580704 .00019177 00000-0 23247-3 0 9993 2 44348 28.5068 166.9398 0297548 35.6798 326.3303 15.20777730140845 Armadillo 1 44352U 19036P 22013.62047049 .00039505 -54354-5 38981-3 0 9998 2 44352 28.5249 124.8034 0246449 101.5855 261.2514 15.34296483141211 NO-104 1 44354U 19036R 22012.48585175 .00019710 00000-0 23110-3 0 9997 2 44354 28.5239 164.7845 0291430 36.5554 325.4563 15.22670279140760 NO-103 1 44355U 19036S 22013.44568014 .00096237 -42507-5 69685-3 0 9998 2 44355 28.5250 66.8714 0182429 195.3539 164.1474 15.52737496141820 Move-IIb 1 44398U 19038N 22013.90878504 .00004206 00000-0 22684-3 0 9995 2 44398 97.6102 342.4879 0021924 306.5884 53.3331 15.15127671139618 SONATE 1 44400U 19038Q 22013.85074678 .00001529 00000-0 89485-4 0 9991 2 44400 97.6190 342.0551 0023361 309.0843 50.8321 15.13186219139546 BeeSat 9 1 44412U 19038AC 22013.88074875 .00002923 00000-0 16247-3 0 9990 2 44412 97.6163 342.5599 0020308 312.3671 47.5840 15.14346337139280 JAISAT-1 1 44419U 19038F 22013.91532589 .00003407 00000-0 18628-3 0 9995 2 44419 97.6167 343.3091 0019141 309.8355 50.1191 15.14830647139641 LightSail-2 1 44420U 19036AC 22013.78472673 .00016400 00000-0 30081-2 0 9990 2 44420 24.0040 52.6016 0018452 34.2309 325.9372 14.64070633134291 Taurus 1 1 44530U 19059C 22013.77456547 .00000825 00000-0 24207-3 0 9996 2 44530 98.5488 110.9252 0013462 221.8701 138.1466 14.46420689123488 Duchifat 3 1 44854U 19089C 22013.52193768 .00001196 00000-0 10071-3 0 9990 2 44854 36.9664 297.9733 0007503 31.2193 328.9075 14.99965568114658 OPS-SAT 1 44878U 19092F 22013.75094555 .00003253 00000-0 16524-3 0 9994 2 44878 97.4743 199.3616 0013887 153.5381 206.6564 15.17520904114712 TO-108 1 44881U 19093C 22013.78912436 .00000147 00000-0 25478-4 0 9997 2 44881 97.9080 95.1459 0014553 334.8601 25.1906 14.81539801111877 FloripaSat 1 1 44885U 19093G 22013.74740973 .00000552 00000-0 75209-4 0 9999 2 44885 97.9108 96.0388 0014048 341.8049 18.2671 14.82558004111921 RS-44 1 44909U 19096E 22013.93725664 .00000011 00000-0 38646-5 0 9995 2 44909 82.5232 332.9491 0216816 321.2762 37.2963 12.79712109 95742 Phoenix 1 45258U 98067RB 22013.63872351 .00029221 00000-0 29889-3 0 9992 2 45258 51.6374 352.1695 0004065 344.3159 15.7709 15.64758322108019 QARMAN 1 45263U 98067RG 22013.89868666 .00233610 31173-4 74646-3 0 9999 2 45263 51.6298 328.2303 0004516 91.0255 269.1268 15.90621254108415 Quetzal 1 1 45598U 98067RL 22013.61770404 .00116354 00000-0 59814-3 0 9998 2 45598 51.6356 339.9927 0004764 89.2559 270.8989 15.80342277 97503 BY70-2 1 45857U 20042B 22013.80609410 .00001851 00000-0 26439-3 0 9995 2 45857 97.9695 92.3055 0009717 251.0008 109.0156 14.77859975 82600 UPMSat 2 1 46276U 20061E 22013.81295595 .00001375 00000-0 72965-4 0 9995 2 46276 97.4118 88.1648 0001973 44.3095 315.8296 15.16988281 75428 AmicalSat 1 46287U 20061R 22013.73458925 .00001985 00000-0 12216-3 0 9995 2 46287 97.4669 87.2144 0004237 92.5566 267.6149 15.11142601 75093 SALSAT 1 46495U 20068K 22013.88913919 .00000723 00000-0 57026-4 0 9996 2 46495 97.7139 315.3872 0018770 81.5884 278.7469 15.03780379 70959 BY70-3 1 46839U 20079N 22013.86024350 .00007490 00000-0 21518-3 0 9994 2 46839 97.2199 88.5762 0007221 158.0094 313.0466 15.36087418 66473 SPOC 1 46921U 98067RR 22013.47767906 .00026642 00000-0 30377-3 0 9999 2 46921 51.6397 3.9433 0002184 100.4560 259.6680 15.62035756 67591 Bobcat-1 1 46922U 98067RS 22013.65191326 .00054598 00000-0 45842-3 0 9991 2 46922 51.6405 356.1399 0002803 93.1611 266.9706 15.69357235 67674 Neutron-1 1 46923U 98067RT 22013.51035205 .00027709 00000-0 31687-3 0 9996 2 46923 51.6402 4.1645 0001876 107.2692 252.8507 15.61936006 67620 CAPE 3 1 47309U 21002A 22013.89856097 .00002595 00000-0 12329-3 0 9999 2 47309 60.6838 224.5662 0031870 162.0371 198.1849 15.21987370 54903 AO-109 1 47311U 21002C 22013.88923424 .00002286 00000-0 10782-3 0 9998 2 47311 60.6849 222.8672 0028862 156.0896 204.1539 15.22781143 54907 MiTEE 1 1 47314U 21002F 22013.90148639 .00005792 00000-0 23700-3 0 9990 2 47314 60.6832 219.4170 0031190 146.9864 213.3180 15.25185622 54983 ExoCube 2 1 47319U 21002L 22013.91206360 .00002993 00000-0 13897-3 0 9998 2 47319 60.6838 223.4992 0029187 158.4186 201.8139 15.22392857 54869 UVSQ-SAT 1 47438U 21006AB 22013.69592155 .00002202 00000-0 12496-3 0 9996 2 47438 97.4619 75.9171 0014094 91.9796 268.3050 15.13906693 53851 YUSAT 1 1 47439U 21006AC 22013.82437025 .00002284 00000-0 12907-3 0 9993 2 47439 97.4624 76.0659 0013912 91.8516 268.4309 15.14024317 53873 SOMP 2b 1 47445U 21006AJ 22013.73491370 .00002003 00000-0 11464-3 0 9999 2 47445 97.4591 75.7355 0013741 95.2838 264.9962 15.13700020 53852 IDEASSat 1 47458U 21006AX 22013.76692616 .00002029 00000-0 11661-3 0 9999 2 47458 97.4678 76.1179 0012820 93.4524 266.8174 15.13560851 53852 RSP-01 1 47925U 98067SB 22013.29166976 .00028789 00000-0 35703-3 0 9996 2 47925 51.6413 13.1946 0002947 75.7630 284.3690 15.59792954 47428 TAUSAT-1 1 47926U 98067SC 22013.71293597 .00041011 00000-0 44773-3 0 9994 2 47926 51.6401 8.4869 0003912 77.9041 282.2392 15.62926424 47511 Tsuru 1 47927U 98067SD 22013.42542321 .00024930 00000-0 32262-3 0 9996 2 47927 51.6404 13.3358 0002918 75.7805 284.3512 15.58749122 47433 STARS-EC 1 47928U 98067SE 22013.70855915 .00047834 00000-0 50963-3 0 9990 2 47928 51.6398 9.2093 0003448 138.5283 221.5974 15.63483464 47494 Maya-2 1 47929U 98067SF 22013.29283178 .00025314 00000-0 32758-3 0 9992 2 47929 51.6410 13.9477 0002990 73.6670 286.4651 15.58740838 47372 OPUSAT-II 1 47930U 98067SG 22013.86820093 .00050810 00000-0 52204-3 0 9997 2 47930 51.6391 7.2880 0003702 71.6730 288.4668 15.64379392 47553 GuaraniSat-1 1 47931U 98067SH 22013.28821638 .00026005 00000-0 33554-3 0 9996 2 47931 51.6418 13.9243 0003039 73.7010 286.4317 15.58801724 47414 CubeSX-Sirius-HSE 1 47951U 21022V 22013.89679742 .00000863 00000-0 62856-4 0 9991 2 47951 97.5442 276.6729 0021103 318.7302 107.2895 15.06207887 44722 CubeSX-HSE 1 47952U 21022W 22013.88802117 .00001120 00000-0 80206-4 0 9991 2 47952 97.5436 276.6741 0021009 317.5050 102.7877 15.06246854 44729 KSU-Cubesat 1 47954U 21022Y 22013.72610149 .00002065 00000-0 14387-3 0 9993 2 47954 97.5456 276.5694 0020310 317.6076 42.3581 15.06380427 44425 GRBAlpha 1 47959U 21022AD 22013.88794020 .00001131 00000-0 80948-4 0 9996 2 47959 97.5431 276.6950 0021043 318.4229 102.5123 15.06256028 43544 Orbicraft-Zorkiy 1 47960U 21022AE 22013.81253934 .00002230 00000-0 15513-3 0 9991 2 47960 97.5462 276.6998 0020598 318.0067 130.3020 15.06349783 44224 STECCO 1 47962U 21022AG 22013.79479315 .00002665 00000-0 17854-3 0 9995 2 47962 97.5432 277.0460 0015375 314.7471 132.0009 15.07651758 43551 DO-111 1 47963U 21022AH 22013.71277986 .00005280 00000-0 33669-3 0 9996 2 47963 97.5460 277.3260 0017555 310.5152 49.4546 15.09014233 43589 MO-110 1 47964U 21022AJ 22013.72495043 .00002901 00000-0 19225-3 0 9993 2 47964 97.5448 277.1306 0018208 310.5177 49.4464 15.07953444 43558 FEES 1 48082U 21022AL 22013.66833661 .00004073 00000-0 26997-3 0 9996 2 48082 97.5456 276.9418 0014552 308.6374 51.3551 15.07762372 43248 RamSat 1 48850U 98067SL 22013.55833209 .00015837 00000-0 24042-3 0 9997 2 48850 51.6417 17.9381 0002941 184.7736 175.3228 15.54759548 33133 MO-112 1 48868U 98067SP 22013.60303412 .00048848 00000-0 56790-3 0 9993 2 48868 51.6394 14.4830 0001362 110.8687 249.2452 15.61229968 31963 TUBIN 1 48900U 21059X 22013.90984707 .00001421 00000-0 84947-4 0 9994 2 48900 97.5324 144.8426 0008715 278.8483 195.5127 15.12665480 30543 IT-SPINS 1 49017U 21013G 22013.41099588 .00003621 00000-0 16228-3 0 9994 2 49017 51.5916 59.9692 0006897 229.6908 130.3467 15.23748108 30125 LEDSAT 1 49069U 21073D 22013.77931977 .00001083 00000-0 74831-4 0 9998 2 49069 97.5433 89.7480 0029412 103.3454 257.1056 15.07497327 22527 CUTE 1 49263U 21088D 22013.81525733 .00002038 00000-0 16012-3 0 9991 2 49263 97.6047 84.8212 0019120 232.0692 127.8805 15.01866544 16201 Binar-1 1 49272U 98067SR 22013.27039924 .00016648 00000-0 26739-3 0 9993 2 49272 51.6420 22.0008 0005657 90.3199 269.8440 15.53146859 15444 Maya-3 1 49273U 98067SS 22013.31461248 .00021507 00000-0 33408-3 0 9998 2 49273 51.6416 21.5478 0005658 86.3609 273.8029 15.53880609 15454 Maya-4 1 49274U 98067ST 22013.31785029 .00021175 00000-0 32987-3 0 9997 2 49274 51.6416 21.5693 0005599 85.1516 275.0114 15.53811844 15456 CUAVA-1 1 49275U 98067SU 22013.84138132 .00019978 00000-0 31303-3 0 9992 2 49275 51.6445 18.9267 0005407 96.4743 325.6297 15.53694193 15484 TeikyoSat 4 1 49396U 21102B 22013.90917056 .00000674 00000-0 58209-4 0 9997 2 49396 97.5538 76.5910 0019227 53.6491 306.6504 15.00297023 9874 Z-Sat 1 49399U 21102E 22013.90123173 .00000566 00000-0 47485-4 0 9993 2 49399 97.5636 76.7941 0021926 40.0082 320.2753 15.02043189 9880 KOSEN 1 1 49402U 21102H 22013.86251234 .00000930 00000-0 73360-4 0 9999 2 49402 97.5518 76.7929 0023140 27.6092 332.6357 15.02908482 9885 HO-113 1 50466U 21131B 22013.75178434 -.00000054 00000-0 -29313-5 0 9990 2 50466 98.5963 90.9909 0003645 236.8280 123.2548 14.38435312 2670 /EX
